GFSSGP_con_mucape_078.txt.gz
CAPE
67 49 147 157 6 0 0 0 36 25 78 111 35 70 58 177 3 170 516 345 478 683 801 1101 1367 1386 1122 1139 975 926 722 861 1108 1208 1558 1363 1185 915 451 53 9 17 33 154 207 16 13 8 74
21 48 162 103 5 0 0 18 36 1 73 105 76 140 273 240 575 643 536 428 595 742 736 875 1289 1283 954 801 935 981 509 712 1143 1591 1655 1538 1283 743 199 55 34 102 175 90 12 10 7 29 91
9 7 123 114 0 0 0 16 35 15 93 186 154 81 198 310 690 708 767 579 652 633 611 806 1426 1431 1013 1005 957 411 288 606 880 1046 1292 1155 968 458 54 22 308 39 83 46 8 95 304 162 100
22 141 108 33 0 4 22 29 18 40 89 260 247 136 171 318 146 389 792 787 892 875 876 1160 1329 1277 1116 1394 918 125 7 430 687 844 884 941 958 136 17 52 300 249 139 7 18 41 207 409 282
90 111 0 0 0 18 48 39 37 31 67 187 377 234 47 366 65 320 573 840 894 856 931 1129 1174 1193 1211 1323 780 180 2 168 482 658 775 853 356 19 12 8 7 11 27 2 10 0 0 55 157
53 34 0 0 0 8 62 41 37 53 62 47 208 264 181 303 22 250 399 698 782 781 881 926 811 989 1365 1128 562 180 68 2 144 433 601 875 205 9 8 14 9 32 32 0 0 0 0 0 0
30 3 0 0 0 4 58 34 50 24 58 50 121 208 78 286 71 150 211 629 833 765 814 877 761 506 951 787 446 133 68 74 199 265 451 207 74 14 8 6 11 7 2 0 0 0 0 0 0
70 38 0 0 0 0 22 16 50 80 76 29 94 256 125 127 178 43 3 211 708 829 830 734 694 262 793 482 456 94 42 71 34 51 53 14 17 19 15 9 9 59 38 21 13 0 0 0 0
48 0 0 0 0 0 3 24 80 50 83 116 128 156 144 157 188 24 111 67 66 276 809 724 630 387 276 486 551 138 36 0 10 15 8 2 8 7 7 3 62 97 45 13 0 0 0 0 0
24 0 0 0 0 0 7 78 146 154 81 162 253 189 269 268 175 15 4 3 45 68 637 805 625 344 107 362 639 497 24 4 0 5 12 13 8 5 0 0 7 64 43 30 0 0 0 0 0
0 0 0 0 0 4 25 54 109 120 104 164 160 223 391 257 105 35 18 0 1 12 188 727 538 334 2 21 606 782 486 168 32 0 0 0 4 28 0 6 0 0 0 0 0 0 0 0 0
34 7 0 0 9 11 22 73 244 139 15 98 151 205 354 388 256 193 116 74 1 21 26 344 552 434 30 1 432 655 805 559 229 13 0 0 0 11 0 0 0 0 0 0 0 0 0 0 0
2 0 6 2 16 29 71 132 128 107 40 18 40 70 424 417 281 139 36 0 0 3 34 91 668 538 222 32 39 427 584 697 466 92 52 33 11 0 0 0 0 0 0 0 0 0 0 0 0
6 14 8 17 25 32 28 114 215 25 44 70 68 113 466 451 268 146 35 0 0 9 9 30 289 615 218 97 72 99 292 687 587 393 162 114 66 23 0 5 0 1 0 0 0 0 0 0 0
28 35 24 16 17 48 23 135 121 104 196 130 91 83 390 425 313 193 136 105 2 28 29 17 108 213 300 203 194 257 262 219 640 524 391 197 103 82 82 97 77 42 7 0 0 0 25 28 31
34 0 41 12 17 6 82 8 21 137 167 109 81 79 193 339 345 193 81 37 27 0 9 20 74 131 234 355 217 264 414 445 420 421 454 339 302 207 105 98 106 49 26 1 5 30 25 0 15
0 0 0 1 4 21 90 31 110 155 183 96 67 53 139 126 238 159 95 73 21 1 0 2 34 98 151 351 481 271 213 341 332 372 438 433 405 257 133 110 113 69 37 27 9 8 5 12 52
62 0 0 33 17 5 100 50 194 156 94 136 115 32 6 8 225 119 60 61 24 15 36 22 60 88 140 386 456 490 427 453 415 393 307 222 153 108 85 123 123 69 23 11 10 0 2 48 111
0 0 0 0 59 67 23 41 10 14 54 102 7 28 99 118 116 89 41 75 125 86 74 67 67 81 166 427 379 371 330 431 382 394 389 407 360 285 247 116 150 140 89 22 0 7 24 66 97
0 0 97 69 76 80 8 2 2 29 18 2 1 9 34 41 4 24 42 28 91 106 108 144 132 128 150 335 314 336 282 279 163 212 240 290 285 217 219 160 90 159 142 109 22 57 170 171 212
0 68 8 16 14 20 24 2 4 1 28 1 0 32 77 28 0 0 67 75 83 62 93 98 86 212 181 103 321 179 179 161 150 128 178 197 155 156 197 132 73 82 135 275 425 389 370 426 280
18 3 16 6 30 4 4 6 1 0 0 13 5 21 4 10 28 37 31 42 80 89 126 232 263 158 195 153 121 198 91 78 55 46 32 39 98 100 63 92 63 44 98 99 250 611 547 321 216
19 0 0 5 0 2 0 0 0 2 0 1 31 21 0 0 3 19 5 11 21 14 19 34 152 346 265 274 264 196 114 124 56 22 16 76 24 5 8 21 91 70 45 52 64 91 76 61 55
11 0 0 0 0 0 0 0 0 0 4 14 18 5 2 0 4 0 9 8 1 0 0 0 16 207 238 380 356 291 202 149 93 41 51 64 44 32 45 64 86 60 65 58 42 60 30 46 36
0 0 3 0 0 0 0 0 0 0 0 0 1 14 6 0 11 15 15 2 0 0 0 0 0 0 21 186 288 268 315 370 188 121 95 152 88 67 45 62 68 51 42 31 32 44 28 8 26
0 0 0 0 0 0 0 0 0 0 0 0 10 7 2 0 1 0 3 9 2 0 0 0 0 0 0 0 6 47 139 199 279 282 183 192 125 92 98 88 53 65 56 61 42 67 8 4 6
0 0 0 0 0 0 1 0 0 0 0 0 0 2 0 5 6 9 0 12 6 0 0 0 0 0 0 0 0 0 0 1 0 1 38 64 103 131 141 131 107 102 59 57 22 3 0 0 0
0 0 0 0 0 0 0 0 0 0 0 0 0 0 0 0 4 0 0 0 0 0 0 0 0 0 0 0 0 0 0 0 0 0 0 1 9 45 97 112 112 115 50 39 1 0 0 0 0
0 0 0 0 0 0 0 0 0 0 0 0 0 0 0 0 0 0 0 0 0 0 0 0 0 0 0 0 0 0 0 0 0 0 0 0 0 2 22 162 191 73 0 0 0 0 0 0 0
0 0 0 0 0 0 0 0 0 0 0 0 0 0 0 0 0 0 0 0 0 0 0 0 0 0 0 0 0 0 0 0 0 0 0 0 0 0 59 182 242 6 4 11 24 3 0 0 0

GFSSGP_con_mucape_084.txt.gz
CAPE
0 0 4 25 26 0 0 0 0 0 0 0 0 15 12 86 429 431 429 409 595 1069 973 1429 1767 1608 1559 1452 1417 1259 930 889 1610 1323 1446 1319 1309 927 502 138 84 292 76 28 89 182 189 51 6
0 0 11 38 0 0 0 0 0 0 0 0 5 43 29 600 704 650 744 429 541 850 955 914 1624 1662 1601 1647 1325 1264 1092 924 1402 1226 1293 1423 1234 837 305 105 263 800 353 93 11 47 373 76 4
0 0 24 3 0 0 0 0 0 0 0 0 31 20 90 527 639 699 679 498 588 937 790 987 1612 1588 1609 1390 1206 985 1012 1136 1043 1178 1185 1163 1263 623 260 338 563 526 266 22 18 51 315 140 1
0 0 8 0 0 0 0 0 0 0 0 2 15 0 295 276 385 705 657 628 779 956 791 1378 1402 1346 1513 1512 1227 879 813 1019 1137 1088 1051 1107 1117 640 241 544 32 286 25 47 112 99 178 284 45
2 5 0 0 0 0 0 0 0 0 0 1 2 22 53 182 111 443 767 591 659 763 1163 1175 1083 1226 1491 1501 1188 911 775 976 1459 1196 1089 951 768 461 499 90 84 23 73 229 527 171 131 184 64
5 0 0 0 0 0 0 0 0 0 0 0 17 21 92 200 46 83 757 722 707 659 891 892 830 1138 1343 1290 974 720 855 797 1483 1062 1118 744 671 249 286 13 18 59 47 77 98 245 172 161 85
1 0 0 0 0 0 0 0 0 0 0 0 0 23 68 150 79 104 350 568 554 534 534 671 632 695 908 789 598 549 929 712 817 916 677 476 330 179 19 125 26 24 40 34 17 2 5 10 11
0 0 0 0 0 0 0 0 0 0 0 0 0 5 6 191 164 97 279 368 328 302 455 442 482 491 541 372 341 288 567 480 520 427 202 82 15 39 31 6 69 5 81 55 20 0 0 0 0
0 0 0 0 0 0 0 0 0 0 0 0 0 2 3 382 251 191 83 195 155 90 106 14 376 273 141 467 231 167 244 167 193 198 70 61 6 2 7 6 15 52 80 60 4 0 0 0 0
0 0 0 0 0 0 0 0 0 0 0 1 1 1 34 382 258 221 127 111 35 60 21 42 96 133 122 114 212 111 17 22 76 128 55 38 2 5 1 6 3 40 54 33 21 0 0 0 0
0 0 0 0 0 0 0 0 0 0 0 0 10 20 10 354 265 206 175 111 20 54 1 0 5 1 69 101 73 70 0 0 3 49 89 81 0 0 3 0 2 0 0 0 1 0 0 0 0
0 0 0 0 0 0 0 0 0 0 0 0 7 27 92 77 160 99 136 79 35 27 3 0 0 4 0 1 28 58 3 0 0 1 23 68 0 0 0 0 0 0 0 0 0 0 0 0 0
0 0 0 3 2 0 0 0 0 0 0 4 8 15 58 88 78 159 110 90 39 46 0 0 0 0 2 2 5 59 3 0 0 1 0 1 1 0 0 0 0 0 0 0 0 0 0 0 0
0 0 0 0 1 3 3 0 5 0 0 0 6 17 37 21 0 7 137 135 57 15 0 20 28 32 2 1 0 93 204 0 0 0 0 1 0 0 0 0 0 0 0 0 0 0 0 0 0
5 0 0 0 0 0 7 0 0 0 0 0 0 26 4 21 0 100 232 235 141 6 19 15 29 10 0 30 12 131 257 128 0 0 0 0 0 0 0 0 0 0 0 0 0 0 0 0 0
1 0 0 0 0 0 10 0 0 0 0 0 12 36 54 37 8 389 363 314 189 28 33 38 44 26 27 80 52 99 165 157 156 12 0 10 2 0 0 0 0 0 1 1 0 0 0 0 0
0 0 0 0 4 25 5 0 0 0 0 0 28 51 78 76 3 382 536 345 134 67 19 16 18 17 15 20 6 81 136 151 193 253 325 161 114 73 62 85 99 81 52 28 1 0 2 1 0
0 0 0 0 0 13 2 0 0 20 185 183 0 58 158 162 422 469 415 250 133 59 53 59 28 45 65 5 24 97 193 221 232 332 401 430 398 317 293 98 88 131 107 62 31 10 6 9 15
0 0 0 0 0 0 0 3 0 5 184 120 257 286 125 136 372 308 375 177 172 93 104 107 79 46 40 42 79 106 231 406 394 370 443 472 441 345 343 191 145 180 186 240 72 58 31 3 0
0 0 0 0 0 34 3 0 13 33 65 115 196 266 301 261 399 337 222 83 90 60 122 104 47 37 44 64 72 126 149 204 240 291 314 289 269 249 251 240 201 203 198 229 177 142 80 32 21
0 0 0 0 0 25 28 5 7 91 92 158 110 166 223 308 221 86 140 66 48 19 12 30 17 59 50 42 66 74 88 115 129 187 175 167 213 275 309 292 323 291 180 101 219 185 125 94 74
0 0 0 0 1 0 2 1 10 5 6 3 148 166 101 275 122 26 12 18 43 47 29 36 49 10 10 41 28 47 97 101 93 147 143 97 130 206 243 276 243 244 236 203 116 99 68 85 47
0 0 0 0 1 5 10 40 11 0 0 2 96 51 19 43 58 9 0 21 0 0 4 43 37 65 78 71 72 73 69 66 82 103 95 42 64 36 88 191 226 224 200 169 124 92 88 60 65
0 0 0 0 0 0 0 0 1 0 0 0 9 7 19 58 43 2 0 0 0 10 34 59 64 70 22 23 49 104 63 82 86 42 35 35 3 14 37 33 40 50 108 136 120 113 106 125 20
3 0 2 0 2 0 0 0 3 0 0 0 0 8 27 6 0 9 0 0 37 0 4 12 32 45 91 102 132 95 123 57 85 76 52 74 35 36 13 14 6 5 47 91 80 41 75 107 60
0 0 3 37 0 0 0 1 0 0 0 1 0 10 10 0 0 0 0 2 0 0 0 0 9 15 10 13 142 120 108 84 147 98 101 84 82 124 139 127 91 73 54 31 20 20 61 79 23
0 0 2 0 0 0 0 0 0 0 0 0 0 0 0 4 1 2 0 0 0 0 0 3 1 0 0 0 1 30 99 93 83 113 113 250 188 208 239 205 140 78 64 72 39 43 74 77 78
0 0 0 0 0 1 1 0 0 0 0 0 0 4 0 5 0 0 0 2 2 8 6 2 0 0 0 0 0 0 0 0 0 10 28 69 100 91 148 287 180 203 52 96 79 103 101 144 143
0 0 0 0 0 0 1 0 0 0 0 0 0 4 0 0 0 0 0 0 0 0 6 2 0 0 0 0 0 0 0 0 0 0 0 0 0 0 0 1 13 10 18 32 118 195 180 174 120
0 0 0 0 0 0 0 0 0 0 0 0 0 0 0 0 0 0 0 0 0 0 1 0 0 0 0 0 0 0 0 0 0 0 0 0 0 0 0 0 3 3 4 13 54 167 195 159 95

GFSSGP_con_mucape_090.txt.gz
CAPE
0 0 0 4 0 0 0 0 0 0 0 0 0 0 0 85 113 11 575 724 786 993 1283 1390 1700 1630 1572 1533 1295 1672 1711 1654 1820 1663 1037 765 1088 632 240 38 204 492 927 718 375 13 2 0 0
0 0 0 0 0 0 0 0 0 0 0 0 0 0 17 394 537 490 574 971 880 1115 1262 1176 1785 1717 1374 1095 810 1014 1496 1423 1438 1472 1571 1441 1241 754 306 135 92 564 803 725 269 4 0 0 0
0 0 0 0 0 0 0 0 0 0 0 0 0 0 107 539 624 461 471 907 1019 1163 1166 1297 1966 1885 1694 1265 911 548 659 1401 1409 1486 1360 1385 1179 825 205 360 583 409 348 815 181 1 0 0 0
0 0 0 0 0 0 0 0 0 0 0 0 0 0 28 374 556 476 497 740 1069 1259 1222 1633 1830 1843 1710 1493 1251 885 511 578 1382 1266 1365 1219 973 859 358 826 642 430 281 328 412 32 0 0 0
0 0 0 0 0 0 0 0 0 0 0 0 0 0 3 133 361 497 722 826 1101 1139 1176 1437 1307 1437 1902 1411 1441 1241 1150 929 1247 1358 1176 960 1038 969 1014 973 511 265 34 111 534 132 0 0 0
0 0 0 0 0 0 0 0 0 0 0 0 0 0 6 46 321 568 881 904 1111 990 1114 922 632 972 1235 918 929 1206 1004 788 990 1312 1175 1149 1053 768 969 789 29 32 123 188 333 233 26 0 0
0 0 0 0 0 0 0 0 0 0 0 0 0 0 0 106 148 252 407 731 947 1010 905 720 452 339 281 243 176 252 664 678 771 1370 1049 774 659 524 709 264 132 110 153 406 381 195 142 21 0
0 0 0 0 0 0 0 0 0 0 0 0 0 0 0 118 103 139 268 310 414 649 705 567 463 354 188 124 95 21 9 145 444 988 523 422 226 179 329 131 85 259 571 783 562 350 194 91 29
0 0 0 0 0 0 0 0 0 0 0 0 0 0 55 73 158 191 153 171 184 212 452 535 481 399 295 111 65 30 40 0 61 392 334 309 147 48 29 2 36 165 218 146 121 136 75 28 0
0 0 0 0 0 0 0 0 0 0 0 0 0 0 8 142 165 187 133 108 148 141 103 148 142 201 190 94 53 40 21 43 28 155 256 163 145 60 30 13 22 87 78 47 48 23 14 0 0
0 0 0 0 0 0 0 0 0 0 0 0 0 0 0 4 129 131 118 105 144 135 112 105 104 108 92 72 60 17 19 56 8 36 152 245 217 100 47 8 10 11 4 0 0 2 0 0 0
0 0 0 0 0 0 0 0 0 0 0 0 0 0 0 0 92 149 180 166 84 77 84 36 34 4 0 0 0 0 12 2 16 25 67 84 188 112 38 12 3 2 0 0 0 0 0 0 0
0 0 0 0 0 0 0 0 0 0 0 0 0 0 0 0 0 107 201 198 149 110 48 28 20 7 1 0 0 0 0 0 1 11 42 51 79 77 44 5 1 0 0 0 0 0 0 0 0
0 0 0 0 0 0 0 0 0 0 0 0 0 0 0 0 0 13 109 154 120 117 87 46 33 8 0 0 1 6 2 1 7 3 25 27 0 120 48 4 8 0 2 0 0 0 0 0 0
0 0 0 0 0 0 0 0 0 0 0 0 0 0 0 0 0 0 0 50 95 101 40 48 37 3 0 0 0 8 16 0 5 0 49 11 56 15 53 5 1 1 0 0 0 0 0 0 0
0 0 0 0 0 0 0 0 0 0 0 0 0 0 0 0 0 0 0 12 70 95 105 76 36 14 5 1 0 0 5 66 34 18 40 0 18 37 39 15 3 0 0 0 0 0 0 0 0
0 0 0 0 0 0 0 0 0 0 0 0 0 0 0 0 0 0 4 13 113 160 124 101 48 47 15 7 3 7 66 105 20 14 9 12 5 49 50 10 7 1 0 0 0 0 0 0 0
0 0 0 0 0 0 0 0 0 0 0 0 0 0 0 0 0 117 232 194 233 234 217 116 76 42 5 45 38 72 110 48 37 2 1 59 55 91 43 56 9 0 0 0 0 0 0 0 0
0 0 0 0 0 0 0 0 0 0 0 0 0 0 0 0 0 278 270 289 252 232 188 140 75 48 18 25 22 52 98 133 38 19 11 56 113 81 106 63 2 0 0 0 0 0 0 0 16
0 0 0 0 0 0 0 0 0 0 0 0 5 17 12 68 196 161 213 244 196 216 193 130 83 58 33 64 39 62 93 103 108 51 43 39 93 136 126 41 27 16 7 55 81 73 45 16 22
0 0 0 0 0 0 0 0 0 0 0 1 37 29 45 123 120 116 157 94 62 110 221 318 176 106 37 74 43 47 90 84 102 79 75 54 86 155 188 138 200 221 224 211 185 186 156 106 100
0 0 0 4 0 0 1 0 0 0 0 1 19 47 52 209 165 135 82 52 49 190 162 62 61 110 43 69 49 39 59 31 44 36 32 60 75 70 96 183 204 272 276 274 261 271 194 163 112
0 0 0 0 0 0 0 0 0 0 0 0 0 7 77 53 50 47 34 13 46 66 94 99 46 31 67 58 59 22 8 53 17 16 42 40 42 58 53 57 69 84 135 129 133 142 154 138 111
0 0 0 0 0 0 0 0 1 0 0 0 1 5 8 2 15 54 13 18 11 54 53 45 38 28 6 47 8 25 22 41 48 59 36 51 62 44 44 53 52 51 76 94 137 88 80 92 90
0 0 0 0 0 0 0 0 0 0 0 0 2 4 2 18 16 17 12 0 6 0 14 8 7 5 9 10 33 19 19 39 24 29 50 41 9 15 17 23 14 29 61 60 101 110 94 84 70
0 0 0 0 0 0 0 0 0 0 0 0 3 4 1 9 8 12 0 0 0 0 0 0 0 0 5 48 47 1 48 29 42 56 55 50 61 30 48 32 21 11 21 41 50 51 56 117 95
0 0 0 0 0 0 0 0 0 0 0 0 0 0 0 0 0 0 0 0 0 0 0 0 0 0 1 1 1 27 40 28 38 7 5 31 36 40 78 107 75 53 32 33 51 36 38 29 60
0 0 0 0 0 2 4 0 0 0 0 0 0 0 0 0 0 0 0 0 0 1 0 0 0 0 0 1 0 1 4 3 14 28 52 49 36 36 34 46 92 110 69 106 152 123 106 103 55
0 3 1 1 6 10 2 0 0 0 0 0 0 0 0 0 0 0 0 0 0 2 2 2 0 0 0 0 0 0 0 0 0 0 1 4 7 16 15 10 14 11 17 30 31 78 93 130 47
0 0 0 0 0 0 0 0 0 0 0 0 0 1 0 0 0 0 0 0 0 3 10 1 0 0 0 0 0 0 0 0 0 0 0 0 0 0 0 0 0 0 0 0 0 0 12 26 37

GFSSGP_con_mucape_096.txt.gz
CAPE
0 0 0 0 0 0 0 0 0 0 0 0 0 0 0 0 0 0 284 764 706 802 1392 1550 2137 2093 1899 1988 1794 2003 1961 1812 1552 820 857 639 783 313 454 645 695 456 840 674 263 39 12 89 1
0 0 0 0 0 0 0 0 0 0 0 0 0 0 0 0 143 296 312 711 726 1074 1335 1256 1996 2004 1912 1898 1816 1791 1667 1717 1727 1296 938 737 782 270 574 656 980 999 682 227 16 6 8 13 1
0 0 0 0 0 0 0 0 0 0 0 0 0 0 0 41 329 409 330 809 748 1110 1246 1197 1924 1946 1958 1733 1873 1603 1710 1517 1438 1457 1393 1366 904 400 390 819 1214 1026 762 279 2 2 12 7 5
0 0 0 0 0 0 0 0 0 0 0 0 0 0 0 28 83 258 314 667 1028 1144 1186 1417 1809 1892 1746 1628 1652 1615 1482 1346 1423 1138 1258 1158 1161 701 370 979 1222 954 648 113 0 3 11 108 25
0 0 0 0 0 0 0 0 0 0 0 0 0 0 0 0 0 66 302 581 1019 1099 1090 1420 1810 1857 1757 1471 1305 1255 1296 1442 1323 1204 981 992 1037 842 866 865 972 1076 845 119 0 3 15 5 1
0 0 0 0 0 0 0 0 0 0 0 0 0 0 0 0 0 0 17 298 530 910 993 1231 1192 1431 1702 1651 1528 1331 1067 721 1159 1457 1378 1161 936 1159 934 962 871 1080 745 188 0 1 3 0 1
0 0 0 0 0 0 0 0 0 0 0 0 0 0 0 0 0 1 14 314 206 425 629 913 1057 832 541 604 585 515 506 505 285 1037 1191 1156 825 749 856 869 834 701 727 569 128 2 0 0 1
0 0 0 0 0 0 0 0 0 0 0 0 0 0 0 0 0 0 15 29 255 121 283 521 500 323 216 205 144 176 81 81 98 274 807 702 621 525 512 508 551 417 139 536 487 115 4 7 1
0 0 0 0 0 0 0 0 0 0 0 0 0 0 0 0 0 0 0 12 145 134 275 160 176 156 105 119 65 71 60 38 10 160 490 741 440 320 262 193 149 150 115 113 654 397 131 32 0
0 0 0 0 0 0 0 0 0 0 0 0 0 0 0 0 0 0 0 2 8 248 140 100 133 145 118 98 87 63 48 54 41 19 180 267 284 276 232 98 74 22 35 55 335 471 354 29 0
0 0 0 0 0 0 0 0 0 0 0 0 0 0 0 0 0 0 0 0 0 5 346 132 120 160 157 129 102 59 48 15 21 46 23 78 146 175 219 109 50 3 0 27 92 116 122 16 0
0 0 0 0 0 0 0 0 0 0 0 0 0 0 0 0 0 0 0 0 0 7 22 84 112 111 151 131 94 63 48 24 14 4 1 40 150 169 209 165 152 171 17 180 152 76 52 3 0
0 0 0 0 0 0 0 0 0 0 0 0 0 0 0 0 0 0 0 0 0 3 28 76 115 123 119 137 112 95 68 43 12 17 7 105 124 165 185 182 179 137 173 67 150 65 38 23 0
0 0 0 0 0 0 0 0 0 0 0 0 0 0 0 0 0 0 0 0 0 0 42 47 92 116 123 140 144 107 87 15 8 1 0 64 85 108 172 176 145 135 116 132 65 75 47 16 0
0 0 0 0 0 0 0 0 0 0 0 0 0 0 0 0 0 0 0 0 0 0 0 27 12 7 10 1 4 2 0 0 0 0 0 6 66 66 99 151 156 148 116 91 62 86 82 0 0
0 0 0 0 0 0 0 0 0 0 0 0 0 0 0 0 0 0 0 0 0 0 0 0 0 11 0 6 0 0 0 0 0 0 0 0 14 42 55 88 98 49 45 80 23 32 104 8 0
0 0 0 0 0 0 0 0 0 0 0 0 0 0 0 0 0 0 0 0 0 0 0 0 0 20 1 9 0 0 0 0 0 0 0 0 0 17 36 30 66 69 37 36 59 6 75 43 0
0 0 0 0 0 0 0 0 0 0 0 0 0 0 0 0 0 0 0 0 0 0 0 5 17 45 27 0 0 0 0 0 0 0 0 1 0 0 22 35 77 54 59 5 1 9 99 60 19
0 0 0 0 0 0 0 0 0 0 0 0 0 0 0 0 0 0 0 0 6 128 92 71 98 90 73 34 0 6 3 2 0 0 1 2 3 3 20 59 85 82 77 9 0 1 64 93 14
0 0 0 0 0 0 0 0 0 0 0 0 2 2 0 22 56 96 23 26 176 213 203 177 181 154 118 73 27 13 0 0 2 1 0 3 22 32 120 94 101 64 62 28 3 2 0 50 23
0 0 0 0 0 0 0 0 0 0 9 25 4 2 40 72 83 147 143 205 150 198 190 179 186 124 138 110 77 56 53 2 1 0 5 18 27 43 38 44 75 87 63 23 7 6 61 1 11
0 0 0 0 0 0 0 0 0 0 1 1 0 0 3 99 107 104 144 178 96 109 83 91 137 69 58 32 56 196 79 6 13 0 2 14 24 24 44 75 32 18 24 5 3 26 72 60 74
0 0 0 0 0 0 0 0 0 0 0 0 0 1 6 28 67 104 103 67 185 170 149 104 96 57 17 19 94 76 70 51 3 2 4 15 9 20 22 33 26 16 4 43 27 78 80 100 120
0 0 0 0 0 0 0 0 0 0 0 0 0 0 0 14 29 35 43 56 92 67 43 93 67 93 73 72 45 45 72 26 5 37 25 27 33 33 44 13 9 34 60 41 35 70 71 111 151
0 0 0 0 0 0 0 0 0 0 0 0 0 0 0 1 3 9 39 17 22 1 5 47 15 45 34 40 35 22 13 10 8 4 7 14 16 30 45 12 29 14 24 56 60 50 64 68 84
0 0 0 0 0 0 0 0 0 0 0 0 0 0 7 3 0 1 5 9 1 5 25 9 29 15 28 11 17 4 8 3 0 0 4 0 12 4 10 32 12 34 28 38 35 37 46 68 80
0 0 0 0 0 0 0 0 0 0 0 0 0 0 0 0 0 0 1 0 0 0 0 1 0 0 0 0 0 2 7 13 2 1 0 0 0 1 36 37 45 9 42 49 68 74 51 44 53
0 0 0 0 0 0 2 0 0 0 0 0 0 0 0 0 0 0 0 0 0 0 0 0 0 0 0 0 0 0 0 1 2 18 31 45 28 40 27 2 24 8 50 46 43 43 32 29 39
0 0 0 0 0 0 0 1 0 0 0 0 0 0 0 0 0 0 0 0 0 0 0 0 0 0 0 0 0 0 0 0 0 0 0 0 2 7 1 0 4 17 2 14 2 15 38 31 45
0 0 0 0 0 0 0 0 0 0 0 0 0 0 0 0 0 0 0 0 0 0 0 0 0 0 0 0 0 0 0 0 0 0 0 0 0 0 0 0 0 0 0 0 0 0 0 24 43

GFSSGP_con_mucape_099.txt.gz
CAPE
0 0 0 0 0 0 0 0 0 0 0 0 0 0 0 0 0 0 197 592 819 835 1450 1342 2195 2370 2336 2003 2020 1962 2037 1905 1886 1682 1593 1435 1149 640 286 266 340 717 1006 612 161 216 64 17 95
0 0 0 0 0 0 0 0 0 0 0 0 0 0 0 0 79 251 302 388 722 1069 1561 1286 1961 2012 2105 2020 1921 1920 1901 1864 1613 1046 1364 1164 1008 487 354 578 494 999 1067 761 211 203 271 1 0
0 0 0 0 0 0 0 0 0 0 0 0 0 0 0 4 0 280 268 343 820 1169 1462 1259 1978 1754 1745 1897 2018 1988 1914 1871 1760 1570 1168 1283 891 584 583 1153 1285 983 900 614 332 245 209 0 0
0 0 0 0 0 0 0 0 0 0 0 0 0 0 0 0 0 0 71 351 1206 1184 1408 1416 1921 1807 1766 1819 1969 1858 1708 1701 1723 1665 1491 1219 1184 670 1044 1228 829 803 525 297 9 35 38 106 17
0 0 0 0 0 0 0 0 0 0 0 0 0 0 0 0 0 2 14 237 752 973 1255 1367 1591 1736 1500 1580 1506 1817 1871 1677 1531 1277 1225 1007 1013 875 1140 1152 1016 871 606 87 0 2 5 30 29
0 0 0 0 0 0 0 0 0 0 0 0 0 0 0 0 0 0 0 84 576 541 766 1095 1015 1415 1531 1524 1442 1279 1424 1427 1260 1440 1369 1217 1249 921 1066 1127 902 796 530 33 0 21 32 21 0
0 0 0 0 0 0 0 0 0 0 0 0 0 0 0 0 0 0 0 0 49 114 276 770 1085 1028 1242 1200 1081 936 838 373 350 833 1433 1326 1013 1083 861 745 789 823 691 300 54 184 137 19 50
0 0 0 0 0 0 0 0 0 0 0 0 0 0 0 0 0 0 0 0 0 66 244 254 432 570 644 510 270 150 299 307 123 330 895 889 817 774 638 398 545 786 680 481 176 195 152 130 157
0 0 0 0 0 0 0 0 0 0 0 0 0 0 0 0 0 0 0 0 0 0 120 151 143 112 198 202 118 105 62 53 52 174 470 589 779 770 541 263 166 350 494 516 404 227 139 71 46
0 0 0 0 0 0 0 0 0 0 0 0 0 0 0 0 0 0 0 0 0 0 0 167 163 152 128 113 91 65 53 52 34 259 471 549 622 583 482 335 170 273 215 152 469 422 173 15 13
0 0 0 0 0 0 0 0 0 0 0 0 0 0 0 0 0 0 0 0 0 0 6 7 121 378 130 144 135 67 71 46 23 10 168 201 230 346 466 434 324 254 25 61 16 253 117 0 0
0 0 0 0 0 0 0 0 0 0 0 0 0 0 0 0 0 0 0 0 0 0 0 0 25 288 217 157 156 141 93 31 2 1 0 61 271 176 430 325 301 135 66 93 75 102 184 107 5
0 0 0 0 0 0 0 0 0 0 0 0 0 0 0 0 0 0 0 0 0 0 0 0 12 97 153 195 178 142 89 21 11 7 1 38 72 137 185 276 244 152 110 106 306 138 119 83 28
0 0 0 0 0 0 0 0 0 0 0 0 0 0 0 0 0 0 0 0 0 0 0 0 0 36 77 127 171 144 104 39 23 9 8 10 50 111 117 184 207 261 189 216 140 144 146 93 61
0 0 0 0 0 0 0 0 0 0 0 0 0 0 0 0 0 0 0 0 0 0 0 0 10 18 62 101 126 160 177 140 74 63 0 0 0 29 148 240 172 178 203 194 93 86 127 104 101
0 0 0 0 0 0 0 0 0 0 0 0 0 0 0 0 0 0 0 0 0 0 0 0 7 0 8 50 62 64 61 55 0 0 0 0 0 0 33 137 159 245 159 168 146 59 83 64 109
0 0 0 0 0 0 0 0 0 0 0 0 0 0 0 0 0 0 0 0 0 0 0 0 9 0 1 0 26 0 0 0 0 0 0 0 0 0 7 51 59 161 153 104 97 128 86 40 29
0 0 0 0 0 0 0 0 0 0 0 0 0 0 0 0 0 0 0 0 0 0 0 0 7 8 15 15 24 9 0 0 1 2 0 0 0 2 28 38 46 94 98 46 76 26 81 98 26
0 0 0 0 0 0 0 0 0 0 0 0 1 0 0 1 0 0 0 0 0 0 0 6 15 36 69 79 48 40 25 22 15 7 4 0 0 1 22 59 63 99 78 28 53 77 35 77 23
0 0 0 0 0 0 0 0 0 0 0 0 5 2 3 27 11 19 25 37 12 0 44 87 120 142 152 136 120 78 53 20 33 37 3 16 5 20 10 67 37 33 41 35 43 65 45 101 36
0 0 0 0 0 0 0 0 0 0 0 0 0 2 9 77 76 40 47 36 11 62 152 158 163 131 153 174 165 121 69 42 90 68 4 46 24 73 35 127 106 47 40 15 9 51 54 75 19
0 0 0 0 0 0 0 0 0 0 0 0 0 7 2 1 8 38 27 42 84 142 59 79 72 80 60 55 59 83 95 140 95 114 57 31 7 76 79 102 104 59 62 49 3 22 62 90 28
0 0 0 0 0 0 0 0 0 0 0 0 0 0 0 0 0 44 48 102 67 59 61 59 80 78 34 30 39 74 55 109 55 83 73 38 9 33 70 27 96 32 55 12 6 42 34 6 3
0 0 0 0 0 0 0 0 0 0 0 0 0 0 0 0 8 15 59 62 59 93 62 72 68 80 72 134 44 153 124 51 39 27 5 17 14 25 29 30 5 100 24 13 12 2 2 3 6
0 0 0 0 0 0 0 0 0 0 0 1 0 0 3 3 0 6 51 54 37 73 58 34 17 27 69 71 75 58 49 58 74 16 13 10 4 10 25 40 25 22 14 5 12 6 25 4 3
0 0 0 0 0 0 0 0 0 0 0 0 0 0 1 0 2 1 9 4 2 4 9 18 27 22 30 55 35 27 2 14 0 8 2 11 10 6 3 3 14 3 3 8 8 11 10 32 56
0 0 0 0 0 0 0 0 0 0 0 0 0 0 0 0 0 0 0 0 0 0 4 0 0 0 0 8 9 3 7 11 5 3 7 4 1 0 5 15 1 15 11 17 18 13 47 56 65
0 0 0 0 0 6 0 0 0 0 0 0 0 0 0 0 0 0 0 0 0 0 0 0 0 0 0 0 0 0 0 0 0 12 16 15 17 41 20 3 14 4 17 10 1 0 15 37 57
0 0 0 0 0 5 0 4 0 0 0 0 0 0 0 0 0 0 0 0 0 0 0 0 0 0 0 0 0 0 0 0 0 0 0 0 0 0 0 1 2 0 0 0 8 6 0 1 28
0 0 0 0 0 0 0 0 0 0 0 0 0 0 0 0 0 0 0 0 0 0 0 0 0 0 0 0 0 0 0 0 0 0 0 0 0 0 0 0 0 0 0 0 0 0 0 0 0